Location: Wanzleben
(52.0609°N, 11.4408°E)
Time: 16:22:29
(UTC+00:00)

Nadezhda 4 Rocket - Pass Details

Date: 18 September 2020
Orbit: 949 x 993 km, 82.9° (Epoch: 21 October)

Event Time Altitude Azimuth Distance (km) Brightness Sun altitude
Rises 18:49:14 0° 350° (N) 3,643 7.5 -14.0°
Reaches altitude 10° 18:51:46 10° 352° (N) 2,690 6.7 -14.4°
Maximum altitude 18:57:55 78° 79° (ENE) 977 3.9 -15.3°
Drops below altitude 10° 19:04:01 10° 166° (SSE) 2,670 5.9 -16.1°
Enters shadow 19:04:42 - 166° (SSE) 2,923 6.1 -16.2°
